Wind_Speed
25 23 23 20 19 18 16 14 10 5 1 3 6 9 11 11 8 10 13 15 16 17 18 21 21 21 19 27 27 24 21 21 17 26 25 25 30 28 30 34 36 33 30
25 21 20 17 15 15 11 6 5 3 3 4 5 6 6 8 10 14 14 12 17 20 21 20 21 22 25 24 21 22 25 24 21 21 23 26 27 30 30 33 31 29 29
23 19 14 13 11 9 12 9 6 5 4 4 3 5 7 7 5 8 12 15 18 20 24 25 25 22 21 23 21 19 18 21 20 22 26 30 27 26 30 29 22 24 25
22 18 16 14 18 15 12 10 8 6 4 4 4 6 4 6 10 14 18 21 22 21 21 22 19 22 24 22 21 23 23 25 22 22 24 24 25 28 25 22 19 24 22
20 18 22 22 16 16 15 12 9 6 5 4 4 7 10 9 16 19 21 22 22 19 18 23 21 24 18 21 23 24 26 26 26 25 23 25 23 23 21 21 22 23 28
27 25 27 24 22 20 18 15 13 11 9 7 6 6 7 9 15 17 21 20 17 17 19 18 18 17 24 26 27 29 26 23 26 21 25 23 25 22 22 22 22 20 8
27 27 27 25 23 21 18 15 11 9 5 9 9 6 6 8 14 19 19 13 18 17 17 15 16 14 23 28 32 30 24 25 22 21 23 23 19 21 28 26 24 22 23
26 25 24 24 23 20 17 14 13 9 8 7 8 5 5 6 11 18 21 12 13 17 17 14 14 18 22 31 30 24 23 24 22 29 27 25 24 26 25 26 28 26 26
25 24 24 21 19 17 17 14 12 11 8 8 6 7 6 4 9 16 20 14 14 14 13 18 16 21 30 28 25 22 23 27 27 23 23 21 21 23 27 18 20 19 18
25 24 21 19 18 18 18 14 12 11 7 8 5 4 6 4 7 16 20 11 12 12 14 14 13 24 29 23 23 19 22 27 29 27 31 29 24 22 27 22 27 20 22
24 22 21 19 20 19 18 14 10 9 9 8 3 8 8 3 8 17 18 10 12 12 13 15 14 25 28 24 21 17 22 24 25 26 24 21 26 27 27 27 23 23 23
23 21 20 21 17 17 18 13 9 10 8 9 3 14 8 9 12 16 16 11 12 12 13 14 16 21 27 21 21 20 19 23 24 22 22 24 23 28 29 28 29 30 36
22 20 18 17 18 17 16 15 9 7 8 10 8 5 7 8 10 13 12 13 14 15 16 14 15 15 26 26 24 23 21 23 21 21 22 23 26 27 28 25 32 32 38
21 18 18 18 18 18 14 13 12 10 11 8 4 4 4 7 9 12 13 12 12 12 17 18 14 17 22 21 22 21 21 22 23 23 23 24 26 26 25 27 28 30 29
20 19 18 17 15 19 20 15 13 11 8 6 4 4 5 7 8 10 10 11 12 15 17 13 16 19 20 21 23 22 23 24 25 25 24 25 25 26 27 30 27 29 22
21 21 20 19 17 18 22 18 14 13 12 12 10 7 4 7 8 7 7 10 12 12 14 15 16 18 19 22 24 24 24 24 26 25 24 24 25 26 29 29 31 29 25
20 20 19 19 22 23 18 17 14 10 9 7 7 10 9 6 9 7 10 12 6 11 11 14 14 15 16 18 20 23 24 24 23 25 22 24 25 27 29 28 30 30 28
20 19 16 18 17 15 16 17 21 16 12 10 5 5 6 4 5 8 12 13 13 12 13 13 14 16 17 18 18 20 24 23 22 24 24 25 27 28 29 28 28 29 28
20 15 16 15 14 14 11 11 9 7 5 16 11 5 1 3 3 4 6 10 10 11 12 12 12 14 14 16 17 19 22 22 24 24 25 26 28 29 27 30 28 29 28
17 17 17 15 14 13 10 9 9 6 5 6 13 5 3 9 5 4 6 7 8 10 11 13 13 15 16 17 18 20 20 21 23 24 25 27 28 32 27 30 28 25 25
16 16 16 18 17 16 15 9 8 5 4 9 9 3 4 1 3 4 4 6 7 8 10 12 14 16 18 18 19 21 20 21 22 23 24 28 28 30 29 30 29 26 26
16 16 12 10 10 11 7 9 10 9 6 10 12 8 5 2 2 4 3 5 6 8 10 11 14 16 19 19 19 20 20 21 22 23 25 28 28 28 27 29 29 25 28
19 15 12 7 11 12 7 3 6 8 8 6 7 9 5 3 4 2 3 4 4 6 8 10 12 14 17 17 18 18 18 21 24 23 25 28 28 27 25 27 28 25 27
15 14 14 13 10 8 9 11 10 9 7 8 7 5 3 3 5 4 2 3 4 6 7 9 11 14 16 17 17 17 19 22 23 26 27 23 25 22 25 26 28 26 26
12 11 11 10 10 8 4 9 10 10 9 8 8 7 7 5 3 3 3 2 3 5 6 9 10 13 14 16 18 20 20 19 20 23 22 21 20 22 24 24 26 23 23
11 10 10 9 8 8 9 9 10 10 11 9 9 9 7 6 4 4 3 3 2 4 5 8 9 12 13 15 18 19 18 19 21 20 21 20 22 23 21 23 24 21 23
Wind_Direction
198 206 206 207 214 223 231 243 260 262 3 341 342 338 335 333 345 338 330 323 338 340 334 326 319 319 313 320 321 317 317 325 316 316 325 323 316 317 318 310 313 309 308
192 200 204 203 212 220 222 192 161 75 39 13 349 0 1 342 352 351 351 355 350 342 334 333 329 329 330 319 319 325 319 320 324 315 315 312 307 313 305 311 310 306 304
182 179 179 190 199 153 136 112 86 65 94 70 36 9 360 4 13 5 353 344 337 334 329 331 330 335 344 339 327 322 317 319 315 310 307 304 302 305 309 306 307 303 308
157 160 173 164 140 124 114 110 117 105 81 55 29 10 8 35 22 7 354 346 337 331 331 330 341 351 351 360 353 344 342 328 319 312 303 298 300 300 306 306 316 313 313
150 156 131 131 132 126 125 126 122 113 94 52 37 40 58 39 21 3 352 341 338 337 333 339 337 339 344 343 348 342 335 323 312 307 305 305 303 313 317 321 314 309 314
134 128 132 133 139 144 147 153 153 149 138 111 80 79 62 31 13 352 343 336 334 324 322 331 339 352 335 336 334 326 321 315 306 312 309 293 297 308 318 318 311 311 311
131 135 141 147 149 154 156 150 139 134 128 116 108 99 71 19 357 351 351 345 336 337 344 351 2 356 344 339 330 329 336 325 326 326 325 326 325 318 314 310 312 309 300
136 145 151 153 158 157 145 139 140 146 132 134 123 120 102 26 357 356 357 360 353 356 351 3 5 351 342 343 338 335 330 325 328 326 336 325 321 325 321 317 305 305 304
153 154 159 160 152 148 143 142 134 138 126 125 119 146 139 55 9 2 2 1 357 350 355 356 348 359 351 346 346 334 330 334 339 342 345 342 338 336 334 329 324 326 326
158 159 156 152 151 145 142 138 136 150 130 113 103 149 125 96 36 8 9 6 0 347 347 340 332 350 348 353 347 338 327 336 344 350 357 357 356 348 341 344 337 332 331
152 147 144 143 145 146 135 130 132 116 116 104 104 160 132 144 52 22 16 23 4 343 342 346 345 343 354 358 356 340 334 335 344 348 339 352 350 344 343 335 341 341 341
141 139 140 150 147 139 127 127 136 141 140 143 127 150 146 113 57 17 6 12 4 341 335 333 329 348 355 2 1 356 351 356 352 349 353 348 345 341 340 338 336 335 331
138 143 153 141 132 133 133 142 127 89 113 84 73 70 96 133 24 1 359 3 357 357 337 336 339 348 356 7 12 10 8 359 359 353 348 343 345 338 341 339 329 332 334
141 143 138 136 137 128 124 104 95 75 79 82 64 50 64 50 4 1 360 2 356 356 342 355 359 348 347 0 4 6 5 3 1 349 347 346 348 345 338 336 331 332 331
147 150 147 141 122 103 103 104 104 105 97 107 86 55 52 44 355 1 14 14 1 357 347 8 10 4 4 3 2 3 5 0 358 356 350 353 347 342 338 335 333 330 326
159 164 158 138 129 121 116 115 109 107 101 87 90 81 57 30 21 44 33 7 359 354 343 23 17 8 7 4 359 355 359 357 358 355 353 352 343 336 332 334 335 335 333
177 156 153 159 145 143 145 147 148 151 142 124 92 61 80 64 55 33 9 356 24 20 21 24 15 11 12 6 4 355 348 349 356 353 353 344 338 333 331 336 336 340 342
147 154 161 137 141 159 170 173 164 166 179 178 159 106 74 43 52 46 28 34 35 32 18 20 15 12 11 4 3 357 344 345 360 356 347 341 337 333 329 337 340 341 345
151 160 141 149 162 147 160 159 147 132 137 163 173 175 53 287 319 353 24 21 20 22 16 6 13 15 12 3 1 358 350 354 358 354 345 340 337 335 331 338 345 344 355
160 155 153 129 132 146 170 183 138 148 183 144 151 93 316 266 222 77 61 34 21 17 14 1 7 14 12 6 4 357 355 1 356 349 342 341 338 335 343 339 348 349 352
152 148 150 157 168 184 192 169 145 150 159 126 123 69 159 6 91 94 45 44 29 16 14 1 6 10 10 6 5 357 1 359 352 346 341 340 337 336 349 345 350 354 354
156 170 168 184 191 175 188 158 151 179 173 143 144 115 159 240 106 96 71 41 25 21 16 9 6 16 13 4 7 359 1 357 348 341 337 335 333 337 349 346 352 357 357
157 158 170 182 123 130 143 131 176 170 142 132 162 168 190 189 125 73 80 61 31 25 22 20 11 19 13 9 5 4 359 348 347 346 331 339 331 334 354 347 354 356 2
169 173 176 169 151 164 191 194 130 132 152 163 172 167 173 216 140 139 67 53 29 29 24 29 23 29 19 12 7 7 357 354 349 347 345 347 335 355 358 353 355 359 7
172 175 159 154 168 196 173 167 159 169 185 190 171 178 188 196 162 120 92 44 31 43 31 36 32 33 27 18 16 15 8 358 358 354 360 7 0 3 359 355 356 0 13
173 181 195 180 169 183 202 199 204 186 168 176 189 189 186 193 164 146 126 94 17 62 45 42 43 38 32 26 21 17 11 9 11 14 20 17 8 3 4 0 2 4 7
Height
797 802 806 810 813 815 817 819 821 822 821 823 822 822 822 822 822 821 820 819 816 814 812 810 808 805 801 798 795 792 791 789 784 775 776 773 769 765 762 758 754 752 749
792 798 803 807 810 812 815 817 819 820 822 823 823 823 823 823 822 821 819 817 815 813 812 808 805 803 800 799 796 793 791 788 785 777 776 772 768 764 760 757 752 749 746
788 794 799 804 807 809 813 816 817 820 822 823 823 823 823 821 820 819 818 817 815 814 811 808 805 802 799 796 792 789 788 788 784 779 773 769 764 760 757 754 751 747 744
785 791 797 800 803 808 813 816 820 822 824 824 824 824 823 822 822 821 819 816 814 812 810 808 804 802 800 798 794 790 788 787 783 777 771 767 763 758 756 752 748 744 740
782 788 793 798 803 808 813 816 820 821 822 825 826 825 823 823 823 822 818 815 814 812 810 808 805 802 798 795 794 791 789 786 781 775 770 765 760 756 752 749 747 742 735
781 786 792 797 803 807 809 810 811 814 814 818 822 822 823 825 824 822 819 816 814 813 809 806 805 802 799 795 792 788 786 783 778 773 768 762 758 754 751 748 744 739 733
781 786 791 797 800 804 807 810 814 816 821 817 817 820 822 824 824 821 818 815 813 812 811 807 806 802 798 795 789 783 780 779 775 771 766 760 754 752 749 744 739 736 731
782 788 793 796 799 803 806 809 810 817 815 818 819 821 822 823 823 821 817 814 813 812 812 807 804 802 796 791 786 782 779 776 773 769 763 757 754 750 747 742 737 733 727
784 788 793 797 802 805 806 809 810 814 816 817 817 820 820 822 822 820 817 815 813 812 811 807 805 801 798 791 787 783 778 773 769 765 761 756 751 748 744 739 735 731 724
783 787 793 798 802 805 805 807 810 814 815 816 818 818 819 821 821 820 817 816 813 812 811 809 805 801 796 792 787 783 778 772 765 759 755 752 750 747 742 739 734 730 725
783 788 794 798 801 804 804 807 811 813 815 816 818 819 819 821 821 819 818 817 815 812 810 809 805 802 796 792 788 783 779 774 767 762 759 755 751 746 740 737 734 729 725
787 791 795 799 802 804 803 807 811 812 813 814 816 817 819 821 819 818 818 817 815 812 810 807 803 798 794 790 788 784 779 773 768 766 761 755 750 745 740 735 731 726 720
790 794 798 802 803 803 804 808 811 812 814 816 817 817 819 820 819 819 818 815 814 811 809 807 802 800 797 790 786 783 778 775 771 767 761 757 752 746 741 735 727 722 713
791 797 800 802 804 804 807 808 811 814 814 817 820 819 818 818 819 818 816 814 813 811 807 803 802 801 796 793 789 785 782 778 773 768 763 758 753 746 740 734 726 719 711
794 798 801 802 802 802 805 810 813 815 818 819 820 822 820 819 819 817 815 814 812 810 806 804 802 800 798 795 790 787 784 780 775 770 764 759 754 747 740 733 726 718 710
791 795 797 800 802 805 808 812 816 818 820 821 822 822 820 820 819 817 816 815 814 811 807 805 804 803 802 798 797 792 787 782 778 773 767 762 756 749 742 733 726 717 709
787 790 793 795 798 803 808 810 813 818 819 822 823 822 821 820 818 817 815 812 812 811 810 806 804 802 799 798 796 796 791 785 781 776 770 764 757 750 743 735 726 717 708
784 787 790 793 796 799 801 803 805 809 815 815 819 821 821 821 819 816 814 810 811 810 810 807 805 803 801 799 795 793 791 787 782 777 771 765 758 752 744 735 727 719 711
783 786 789 793 796 798 802 799 807 805 810 811 815 817 818 818 818 817 815 814 813 812 811 809 806 803 800 799 796 792 789 787 784 778 772 766 759 753 745 737 730 722 714
781 784 787 790 794 797 801 801 806 808 809 810 813 814 816 816 816 816 816 815 815 814 813 810 807 805 802 798 797 792 788 786 785 781 774 767 761 753 747 739 733 724 718
781 784 785 789 791 792 796 797 796 805 809 810 813 813 814 814 815 814 816 814 815 814 813 811 808 806 803 799 797 794 790 787 785 782 776 769 762 755 749 742 735 728 722
781 784 786 789 790 793 796 796 798 802 804 807 811 814 815 815 814 815 815 816 816 815 814 812 811 808 806 805 798 795 792 788 786 782 777 771 764 758 752 745 739 732 726
779 783 785 787 789 792 796 797 798 800 803 807 810 812 813 814 814 814 814 814 815 815 813 812 811 808 806 805 803 798 794 790 786 782 778 771 764 760 755 749 743 736 731
776 779 780 783 786 791 795 794 796 799 802 805 808 810 812 814 813 815 815 814 815 815 815 813 812 809 808 807 803 799 795 792 787 782 777 772 767 763 759 753 747 741 736
776 778 781 782 785 790 793 794 796 798 801 804 806 809 811 812 812 813 814 815 814 814 815 814 813 810 809 807 803 799 795 792 787 782 777 774 771 766 762 757 751 745 741
776 779 782 783 785 789 792 794 795 796 799 803 805 807 809 810 810 812 813 813 814 813 815 815 812 811 810 806 804 800 796 792 788 783 779 777 773 769 765 760 755 750 745